Regional Weather Roundup
Issued by NWS

Home | Current Version | Previous Version | Text Only | Print | Product List | Glossary Off
Versions: 1 2 3 4 5 6 7 8 9 10 11 12 13 14 15 16 17 18 19 20 21 22 23 24 25 26 27 28 29 30 31 32 33 34 35 36 37 38 39 40 41 42 43 44 45 46 47 48 49 50

000
ASUS45 KABQ 192110
RWRNM
WEATHER ROUNDUP FOR NEW MEXICO
NATIONAL WEATHER SERVICE ALBUQUERQUE NM
200 PM MST FRI DEC 19 2014

NOTE: "FAIR" MEANS FEW OR NO CLOUDS BELOW 12,000 FEET AGL WITH NO
       SIGNIFICANT WEATHER OR OBSTRUCTIONS TO VISION.

      THIS PRODUCT IS RELEASED AS TWO VERSIONS.  ONE VERSION NEAR
      THE TOP OF THE HOUR CONTAINING PRELIMINARY DATA FROM ALBUQUERQUE
      AND OTHER STATIONS.  A FINAL VERSION WITH ADDITIONAL DATA IS
      ISSUED ABOUT 10 MINUTES AFTER THE HOUR.

NMZ501-503-504-510>518-192200-
NORTHWEST PLATEAU/NORTHCENTRAL MOUNTAINS

CITY           SKY/WX    TMP DP  RH WIND       PRES   REMARKS
FARMINGTON     SUNNY     40  26  57 W12       30.18F WCI  33
LOS ALAMOS     MOSUNNY   34  21  59 E8        30.15S WCI  27
SANTA FE       SUNNY     40  21  46 N15       30.13F WCI  32
TAOS           SUNNY     36  14  41 N7        30.14F WCI  30
ANGEL FIRE     FAIR      29  17  59 W5        30.10S WCI  24

$$
NMZ402-403-502-505>509-192200-
WESTCENTRAL MOUNTAINS/SOUTHWEST MOUNTAINS

CITY           SKY/WX    TMP DP  RH WIND       PRES   REMARKS
GALLUP         SUNNY     39  25  57 CALM      30.18F
GRANTS         SUNNY     39  23  52 N12       30.20F WCI  32
SILVER CITY    SUNNY     46  28  49 S8        30.18F

$$
NMZ407-409-411-412-192200-
SOUTHERN DESERTS

CITY           SKY/WX    TMP DP  RH WIND       PRES   REMARKS
LORDSBURG      FAIR      45  36  70 CALM      30.18F
DEMING         SUNNY     51  29  42 SE6       30.16F
LAS CRUCES     SUNNY     50  23  34 NW8       30.17F
HOLLOMAN AFB   MOSUNNY   50  29  44 NW12      30.15F
ALAMOGORDO     MOSUNNY   48  28  46 NW15      30.16F
T OR C         SUNNY     48  24  39 NE6       30.16F

$$
NMZ519>523-192200-
CENTRAL VALLEYS/CENTRAL HIGHLANDS

CITY           SKY/WX    TMP DP  RH WIND       PRES   REMARKS
ALBUQUERQUE    MOSUNNY   44  24  45 NW21G28   30.18F
DOUBLE EAGLE   MOSUNNY   41  25  52 NW13G21   30.19R
MORIARTY ARPT  FAIR      43  19  37 NW14G20   30.14S
CLINES CORNERS SUNNY     38  22  52 NW23      30.09R WCI  27
BELEN          FAIR      44  25  46 W6        30.18F
SOCORRO        FAIR      48  24  39 N8        30.17F

$$
NMZ524>526-539-540-192200-
SOUTHCENTRAL MOUNTAINS

CITY           SKY/WX    TMP DP  RH WIND       PRES   REMARKS
RUIDOSO        SUNNY     41  21  45 NW15G21   30.15S

$$
NMZ527>531-192200-
NORTHEAST HIGHLANDS/NORTHEAST PLAINS

CITY           SKY/WX    TMP DP  RH WIND       PRES   REMARKS
LAS VEGAS      SUNNY     45  11  25 S9        30.05F
RATON          SUNNY     45  14  28 SW7       30.03F
CLAYTON        MOSUNNY   47  26  44 CALM      30.04F

$$
NMZ532>537-192200-
EASTCENTRAL PLAINS

CITY           SKY/WX    TMP DP  RH WIND       PRES   REMARKS
TUCUMCARI      SUNNY     45  31  58 VRB7      30.07F
CANNON AFB     SUNNY     46  31  55 NW5       30.08F
CLOVIS AIRPORT SUNNY     45  30  57 NW3       30.08F

$$
NMZ028-029-538-192200-
SOUTHEAST PLAINS

CITY           SKY/WX    TMP DP  RH WIND       PRES   REMARKS
ROSWELL        SUNNY     58  21  24 NW12      30.08F
ARTESIA        SUNNY     55  30  38 VRB5      30.10F
CARLSBAD       MOSUNNY   59  34  39 E8        30.08F
HOBBS          SUNNY     55  23  28 W9        30.09F


$$



USA.gov is the U.S. government's official web portal to all federal, state and local government web resources and services.